Hourly Data Report for September 03, 2020

OTTAWA INTL A
ONTARIO
Current Station Operator: NAVCAN

45°19'00.000" N
75°40'00.000" W
114.90 m
6106001
71628
YOW

Download Data

Hourly Data (September 2020)
Hourly Data Report for September 3, 2020
TIME Temp Definition
°C
Dew Point Definition
°C
Rel Hum Definition
%
Wind Dir Definition
10's deg

Wind Spd Definition
km/h
Visibility Definition
km
Stn Press Definition
kPa
Hmdx Definition


Wind Chill Definition


Weather Definition


00:00 15.5 14.3 93 26 6 24.1 99.48     LegendNANA
01:00 15.5 14.4 93 22 10 24.1 99.53     Mainly Clear
02:00 14.5 13.6 94 23 10 24.1 99.55     LegendNANA
03:00 14.0 13.3 95 23 9 24.1 99.55     LegendNANA
04:00 12.8 12.3 97 24 10 24.1 99.57     Clear
05:00 12.8 12.4 98 23 10 24.1 99.62     LegendNANA
06:00 12.8 12.4 98 24 7 24.1 99.62     LegendNANA
07:00 14.6 14.1 97 25 5 24.1 99.63     Clear
08:00 16.9 14.8 87 26 6 24.1 99.62     LegendNANA
09:00 18.9 14.4 75 27 6 24.1 99.62     LegendNANA
10:00 20.7 12.6 59 23 11 24.1 99.56     Mainly Clear
11:00 21.5 13.2 59 17 11 24.1 99.50     LegendNANA
12:00 22.7 14.7 60 20 9 24.1 99.41 26   LegendNANA
13:00 23.4 13.9 55 18 13 24.1 99.33 27   Mostly Cloudy
14:00 23.7 15.1 58 16 20 24.1 99.22 28   LegendNANA
15:00 23.3 16.2 64 17 21 24.1 99.12 28   LegendNANA
16:00 23.1 14.7 59 17 22 24.1 99.02 27   Mostly Cloudy
17:00 22.9 13.4 54 18 20 24.1 98.92 26   LegendNANA
18:00 21.7 13.7 60 19 18 24.1 98.90 25   LegendNANA
19:00 19.9 13.6 67 18 12 24.1 98.83     Mainly Clear
20:00 18.4 14.8 79 16 11 24.1 98.78     LegendNANA
21:00 19.8 15.4 75 18 14 24.1 98.79     LegendNANA
22:00 18.7 16.7 88 21 22 16.1 98.82     Rain
23:00 18.2 16.6 90 23 25 24.1 98.90     LegendNANA

Notes on Data Quality.

Legend

  • E = Estimated
  • M = Missing
  • NA = Not Available*
  • [empty] = Indicates an unobserved value
Date modified: